This is the latest recevied weather packets stored in our database for station/object W8XLR-2. If no packets are shown the sender has not sent any weather packets the latest 1 day(s).
| Time | Temp. | Humidity | Pressure | Rain* | Wind** | Luminosity | Snow |
|---|---|---|---|---|---|---|---|
| 1777972008 | 18.33° C | 66% | 1008 hPa | 0 mm | 2.24 m/s, 244° | - | - |
| 1777971417 | 18.33° C | 66% | 1007.9 hPa | 0 mm | 3.13 m/s, 233° | - | - |
| 1777970811 | 18.33° C | 66% | 1007.9 hPa | 0 mm | 3.13 m/s, 233° | - | - |
| 1777970212 | 17.78° C | 68% | 1007.8 hPa | 0 mm | 2.24 m/s, 240° | - | - |
| 1777969615 | 17.78° C | 68% | 1007.5 hPa | 0 mm | 2.24 m/s, 234° | - | - |
| 1777969013 | 17.78° C | 68% | 1007.5 hPa | 0 mm | 2.24 m/s, 234° | - | - |
| 1777968409 | 17.22° C | 69% | 1007.3 hPa | 0 mm | 2.24 m/s, 227° | - | - |
| 1777967808 | 17.22° C | 69% | 1007.5 hPa | 0 mm | 1.79 m/s, 238° | - | - |
| 1777967259 | 17.22° C | 69% | 1007.5 hPa | 0 mm | 1.79 m/s, 238° | - | - |
| 1777967210 | 17.22° C | 69% | 1007.5 hPa | 0 mm | 1.79 m/s, 238° | - | - |
| 1777966657 | 17.22° C | 69% | 1007.3 hPa | 0 mm | 2.24 m/s, 227° | - | - |
| 1777966609 | 17.22° C | 69% | 1007.3 hPa | 0 mm | 2.24 m/s, 227° | - | - |
| 1777966009 | 17.78° C | 69% | 1007.3 hPa | 0 mm | 2.24 m/s, 229° | - | - |
| 1777965410 | 17.78° C | 69% | 1007.3 hPa | 0 mm | 2.24 m/s, 229° | - | - |
| 1777964812 | 17.78° C | 68% | 1007.4 hPa | 0 mm | 2.24 m/s, 229° | - | - |
| 1777964246 | 17.78° C | 68% | 1007.3 hPa | 0 mm | 2.24 m/s, 234° | - | - |
| 1777964209 | 17.78° C | 68% | 1007.3 hPa | 0 mm | 2.24 m/s, 234° | - | - |
| 1777963608 | 17.78° C | 68% | 1007.3 hPa | 0 mm | 2.24 m/s, 234° | - | - |
| 1777963059 | 17.78° C | 67% | 1007.5 hPa | 0 mm | 2.24 m/s, 236° | - | - |
| 1777963009 | 17.78° C | 67% | 1007.5 hPa | 0 mm | 2.24 m/s, 236° | - | - |
| 1777962447 | 18.33° C | 67% | 1007.6 hPa | 0 mm | 2.24 m/s, 237° | - | - |
| 1777962414 | 18.33° C | 67% | 1007.6 hPa | 0 mm | 2.24 m/s, 237° | - | - |
| 1777961809 | 18.33° C | 67% | 1007.6 hPa | 0 mm | 2.24 m/s, 237° | - | - |
| 1777961209 | 18.33° C | 67% | 1008 hPa | 0 mm | 2.24 m/s, 235° | - | - |
| 1777960641 | 18.33° C | 66% | 1008.3 hPa | 0 mm | 2.24 m/s, 238° | - | - |
* Rain latest hour (hover to see other rain measurements)
** Current wind speed in m/s (hover to see current wind gust speed)